Kenosha, WI

5:02 PM CST on February 22, 2017 (GMT -0600)
Kenosha Regional

Weather History for KENW - March, 2014

Change the Weather History Date:

Thursday, March 6, 2014

  Actual Average Record
Temperature  
Mean Temperature 20 °F -  
Max Temperature 25 °F 37 °F 65 °F (1951)
Min Temperature 15 °F 22 °F 0 °F (2015)
Degree Days  
Heating Degree Days 45    
Moisture  
Dew Point 12 °F    
Average Humidity 72    
Maximum Humidity 81    
Minimum Humidity 63    
Precipitation  
Precipitation 0.00 in - - ()
Sea Level Pressure  
Sea Level Pressure 30.31 in    
Wind  
Wind Speed 8 mph (SE)    
Max Wind Speed 12 mph    
Max Gust Speed 18 mph    
Visibility 10 miles    
Events      
Averages and records for this station are not official NWS values.
T = Trace of Precipitation, MM = Missing Value Source: NWS Daily Summary

Daily Weather History Graph

Daily Weather History Graph

Search for Another Location

Airport or City:

Trip Planner

Search our weather history database for the weather conditions in past years. The results will help you decide how hot, cold, wet, or windy it might be!

Date:

Astronomy

Mar. 06, 2014 Rise Set
Actual Time 6:19 AM CST 5:47 PM CST
Civil Twilight 5:50 AM CST 6:15 PM CST
Nautical Twilight 5:18 AM CST 6:48 PM CST
Astronomical Twilight 4:45 AM CST 7:21 PM CST
Moon 9:19 AM CST (3/6) No Moon Set
Length of Visible Light 12h 24m
Length of Day
11h 28m
Waxing Crescent, 32% of the Moon is Illuminated
Mar 6
Waxing Crescent
Mar 8
First Quarter
Mar 16
Full
Mar 23
Last Quarter
Mar 30
New

Hourly Weather History & Observations

Time (CST) Temp. Windchill Dew Point Humidity Pressure Visibility Wind Dir Wind Speed Gust Speed Precip Events Conditions
12:53 AM 19.0 °F 7.5 °F 12.0 °F 74% 30.47 in 10.0 mi ESE 10.4 mph 18.4 mph N/A   Clear
1:53 AM 18.0 °F 7.7 °F 12.9 °F 81% 30.48 in 10.0 mi ESE 8.1 mph - N/A   Clear
2:53 AM 18.0 °F 8.7 °F 12.0 °F 78% 30.45 in 10.0 mi ESE 6.9 mph - N/A   Partly Cloudy
3:21 AM 18.0 °F 6.9 °F 10.9 °F 74% 30.40 in 10.0 mi ESE 9.2 mph - N/A   Mostly Cloudy
3:39 AM 18.0 °F 6.9 °F 10.0 °F 71% 30.40 in 10.0 mi East 9.2 mph - N/A   Scattered Clouds
3:53 AM 17.1 °F 6.6 °F 10.0 °F 74% 30.45 in 10.0 mi ESE 8.1 mph - N/A   Clear
4:53 AM 16.0 °F 3.6 °F 10.0 °F 77% 30.43 in 10.0 mi ESE 10.4 mph - N/A   Clear
5:53 AM 15.1 °F 5.2 °F 10.0 °F 80% 30.43 in 10.0 mi East 6.9 mph - N/A   Clear
6:53 AM 15.1 °F 4.2 °F 9.0 °F 77% 30.42 in 10.0 mi East 8.1 mph - N/A   Clear
7:53 AM 18.0 °F 5.4 °F 10.0 °F 71% 30.41 in 10.0 mi East 11.5 mph - N/A   Clear
8:53 AM 19.9 °F 8.6 °F 10.9 °F 68% 30.39 in 10.0 mi ESE 10.4 mph - N/A   Clear
9:53 AM 19.9 °F 7.9 °F 12.0 °F 71% 30.37 in 10.0 mi ESE 11.5 mph - N/A   Clear
10:53 AM 21.9 °F 11.7 °F 12.0 °F 66% 30.36 in 10.0 mi SE 9.2 mph - N/A   Clear
11:53 AM 23.0 °F 13.9 °F 12.9 °F 65% 30.33 in 10.0 mi SE 8.1 mph - N/A   Clear
12:53 PM 24.1 °F 17.0 °F 14.0 °F 65% 30.30 in 10.0 mi SE 5.8 mph - N/A   Clear
1:53 PM 25.0 °F 17.1 °F 14.0 °F 63% 30.25 in 10.0 mi East 6.9 mph - N/A   Clear
2:53 PM 25.0 °F 15.5 °F 15.1 °F 66% 30.23 in 10.0 mi East 9.2 mph - N/A   Clear
3:53 PM 24.1 °F 15.2 °F 14.0 °F 65% 30.22 in 10.0 mi ESE 8.1 mph - N/A   Clear
4:53 PM 23.0 °F 14.7 °F 14.0 °F 68% 30.20 in 10.0 mi ESE 6.9 mph - N/A   Clear
5:53 PM 21.9 °F 12.5 °F 12.9 °F 68% 30.17 in 10.0 mi SE 8.1 mph - N/A   Clear
6:53 PM 21.0 °F 14.6 °F 12.9 °F 71% 30.17 in 10.0 mi SE 4.6 mph - N/A   Clear
7:53 PM 19.0 °F 12.3 °F 12.9 °F 77% 30.16 in 10.0 mi SSE 4.6 mph - N/A   Clear
8:53 PM 18.0 °F 8.7 °F 10.9 °F 74% 30.15 in 10.0 mi SSE 6.9 mph - N/A   Clear
9:53 PM 19.0 °F 11.1 °F 10.9 °F 71% 30.14 in 10.0 mi South 5.8 mph - N/A   Clear
10:53 PM 17.1 °F 8.7 °F 10.9 °F 77% 30.12 in 10.0 mi South 5.8 mph - N/A   Clear
11:53 PM 18.0 °F 9.8 °F 12.0 °F 78% 30.10 in 9.0 mi South 5.8 mph - N/A   Clear